Wind_Speed
54 52 51 50 48 47 45 43 41 39 38 36 35 34 33 33 32 31 31 30 29 29 29 29 29 29 30 30 31 32 33 34 35 35 35 36 36 37 37 37 38 38 39
56 54 53 52 51 49 47 45 42 41 39 37 36 35 35 34 33 32 32 31 31 31 31 30 30 31 31 32 32 33 34 34 35 35 36 36 36 37 37 38 38 38 39
57 55 54 53 52 51 49 46 44 42 41 39 38 37 36 35 34 34 34 33 33 32 32 32 32 32 32 33 33 34 34 34 35 36 36 36 36 37 37 38 39 39 39
58 57 55 54 53 51 50 48 46 44 43 41 40 39 38 36 36 36 35 35 34 33 33 34 34 33 33 34 34 34 35 35 35 36 36 37 37 37 37 38 39 39 39
59 58 57 55 53 52 52 50 49 47 45 43 41 40 39 38 38 37 36 36 35 35 35 35 35 35 35 35 35 35 35 35 35 36 36 37 38 38 38 38 39 40 40
58 59 58 57 55 54 53 52 51 49 47 45 43 41 39 39 39 38 37 37 37 36 36 37 36 36 35 35 35 35 35 35 36 36 37 37 38 38 38 39 39 39 39
59 59 60 58 57 55 54 53 52 51 49 46 44 42 40 40 39 39 39 38 38 38 37 38 37 36 36 36 36 35 35 36 36 37 37 38 38 39 39 40 40 39 39
58 59 59 59 58 57 55 54 53 52 50 48 45 43 42 41 40 39 39 39 38 38 38 38 37 37 36 36 36 36 36 36 37 37 37 38 38 39 39 39 39 39 39
56 57 58 59 58 57 56 54 53 52 51 49 47 45 43 42 41 40 40 39 39 38 38 38 37 36 36 36 36 36 36 37 37 37 37 38 38 39 39 39 40 40 40
54 55 56 57 58 57 56 55 53 53 51 50 48 46 45 44 43 42 41 40 39 39 39 38 37 36 36 36 36 36 36 37 37 37 37 38 39 38 39 40 40 41 41
51 53 54 55 55 55 56 55 54 53 52 50 49 48 47 45 44 43 42 41 41 40 39 38 37 37 36 36 36 36 36 36 36 37 37 38 38 39 39 40 40 41 42
49 51 53 54 55 55 55 54 54 53 52 50 49 48 47 46 45 44 42 42 41 39 38 38 38 38 37 36 36 36 36 36 36 37 38 38 38 39 39 40 40 41 42
47 49 51 53 53 53 53 53 53 53 52 51 50 49 48 47 46 45 44 42 41 40 39 39 39 38 37 36 36 36 36 36 37 37 37 38 38 38 39 40 40 41 43
45 48 49 51 51 51 52 51 51 51 51 50 49 48 48 46 45 44 43 42 40 40 39 39 38 37 36 36 36 35 35 36 36 36 37 37 37 38 38 39 40 42 43
43 46 47 49 50 50 50 51 50 50 50 49 48 47 46 45 44 43 41 40 39 38 38 37 36 36 36 36 35 35 35 35 35 36 36 37 37 37 38 40 41 43 44
41 44 45 47 48 49 49 49 49 48 48 48 47 45 45 45 44 42 41 40 39 37 37 36 35 35 35 34 34 35 34 35 35 35 35 36 37 38 39 40 41 43 45
39 41 42 44 46 47 47 48 48 47 46 45 45 44 42 42 42 41 40 39 37 36 35 34 34 34 33 34 34 34 34 34 34 34 35 36 37 38 39 41 42 44 46
39 40 40 42 44 45 46 45 46 45 44 42 42 41 40 39 38 38 37 37 36 35 34 34 33 33 33 32 33 33 33 33 33 34 35 36 37 38 40 41 43 45 48
39 41 40 40 42 43 43 44 43 43 42 40 39 38 38 37 37 36 35 35 35 34 34 33 33 32 32 31 31 32 32 32 33 34 35 36 37 39 40 42 44 46 49
39 40 41 40 40 40 40 41 41 40 39 38 37 37 36 36 35 35 34 34 33 32 32 32 31 31 30 30 30 31 31 32 33 34 35 36 38 39 41 43 45 47 49
40 40 40 39 39 39 39 39 38 37 37 36 36 35 35 34 34 33 33 32 31 31 31 30 30 29 29 29 29 30 31 32 33 34 35 37 38 40 42 44 46 48 50
38 39 40 40 39 39 38 38 37 36 35 35 34 34 33 33 32 32 31 30 29 29 29 28 28 28 28 28 29 30 31 32 33 34 35 37 39 41 43 45 47 48 51
39 39 40 40 39 38 37 36 35 34 33 33 32 32 31 31 30 30 29 28 28 28 27 27 27 27 27 28 29 30 31 31 33 34 36 38 40 41 43 45 47 49 53
41 40 40 39 38 37 35 34 34 33 32 31 31 30 30 29 28 27 27 27 26 26 26 26 26 26 27 28 29 30 30 31 33 35 37 38 40 41 43 46 48 51 54
41 40 40 39 38 37 35 34 33 32 31 30 30 29 28 27 26 26 26 25 25 25 25 25 25 26 27 28 29 29 30 32 33 35 37 38 40 42 44 46 49 52 54
41 41 41 40 39 38 36 34 32 31 31 30 29 28 27 26 26 25 25 24 24 24 24 24 25 25 26 27 28 29 31 32 34 35 37 38 40 42 44 47 50 53 54
Wind_Direction
226 226 226 227 228 228 228 228 228 228 229 231 232 233 235 236 238 240 242 245 250 255 260 265 269 273 276 279 283 287 290 293 295 297 299 301 303 305 305 306 307 308 309
225 226 226 226 227 228 228 228 228 229 230 232 233 234 235 237 239 241 244 248 252 256 261 265 269 273 276 280 283 287 290 292 295 296 298 301 303 304 305 305 306 307 308
225 225 226 227 227 227 228 228 229 230 232 233 234 235 236 238 241 244 246 250 253 257 261 265 270 273 277 280 284 287 289 292 294 296 298 300 302 303 304 305 306 307 308
226 225 226 228 228 228 228 229 230 231 232 234 235 237 238 241 243 246 249 252 255 258 262 266 270 274 277 280 283 286 289 291 293 295 297 299 301 302 303 304 305 307 307
227 226 226 227 229 229 229 230 231 232 233 235 236 238 239 241 243 246 249 252 256 260 264 267 271 274 277 280 282 285 288 291 292 294 297 299 300 302 303 304 305 306 306
227 227 227 227 228 229 229 230 231 232 234 235 237 239 240 242 244 247 250 252 256 260 264 267 271 274 276 279 282 285 287 290 292 294 296 297 299 301 302 303 304 305 305
227 228 228 227 228 229 230 230 231 233 234 235 237 239 241 244 246 248 251 253 257 261 264 267 270 273 275 279 282 284 286 289 291 293 295 297 299 301 302 303 303 304 305
228 229 228 228 229 229 230 231 232 233 234 235 237 239 242 245 247 249 251 254 257 261 264 266 269 272 275 278 281 283 285 288 290 292 294 297 299 300 301 302 303 304 304
228 229 229 229 229 229 231 232 233 234 235 236 237 239 242 245 247 250 252 254 257 260 263 266 268 271 274 277 280 282 284 287 288 291 294 297 298 300 300 301 302 303 304
227 228 229 229 229 229 230 231 232 233 235 237 238 240 243 245 248 250 252 254 256 259 262 265 267 270 273 276 279 281 283 286 288 291 294 296 298 298 299 300 301 303 304
228 228 228 229 229 229 229 231 233 234 235 237 238 240 242 244 247 249 251 253 256 258 261 264 266 269 272 275 277 280 283 286 288 291 294 295 296 297 298 299 301 302 304
228 228 228 228 228 229 229 230 232 234 235 236 238 239 241 243 245 247 249 252 255 257 260 263 266 269 272 274 276 279 283 285 288 291 293 294 295 297 298 299 301 302 303
226 226 227 227 227 228 229 230 231 233 235 237 238 239 240 242 244 246 249 252 255 257 259 262 265 269 271 273 276 280 282 285 288 290 292 293 295 296 297 298 300 301 303
223 224 225 225 226 227 229 230 231 232 234 236 238 239 241 242 244 246 248 251 254 256 258 261 264 267 270 273 276 278 281 285 287 289 291 293 295 296 297 299 301 302 304
221 221 222 223 224 225 227 229 230 232 233 235 237 239 240 241 243 246 248 251 253 256 258 261 263 266 269 272 275 278 282 284 287 289 291 293 295 296 298 300 301 302 304
220 220 220 221 223 224 225 228 229 230 232 234 235 237 238 240 242 244 247 250 253 255 256 259 263 266 268 271 274 278 281 284 286 289 291 293 295 297 298 300 302 303 305
216 218 218 219 221 222 224 226 227 229 231 233 233 235 237 239 241 243 245 248 250 253 255 258 262 265 268 271 275 279 281 284 286 288 291 294 295 297 299 301 302 303 305
213 215 216 217 218 220 221 223 225 227 229 230 232 234 236 238 240 242 244 246 249 252 254 258 261 265 268 272 276 279 282 284 286 289 292 293 296 298 299 301 303 304 306
211 211 213 215 216 218 221 222 224 225 227 229 231 233 235 238 240 241 243 245 247 250 254 258 261 264 267 272 276 279 282 284 287 289 291 294 296 298 300 302 303 305 307
210 211 211 213 214 217 220 221 222 223 225 227 229 231 234 236 239 241 243 245 247 250 253 257 260 264 267 271 275 278 281 284 287 289 292 294 297 299 301 302 304 306 308
211 212 211 211 212 215 217 218 219 221 223 225 227 230 232 234 236 239 241 244 247 250 253 257 260 264 267 271 275 278 281 284 287 291 293 295 298 300 302 304 306 307 309
210 211 212 212 212 214 216 218 219 220 221 223 225 227 230 232 235 237 241 244 247 250 253 256 260 264 267 272 276 279 282 285 288 291 294 297 299 301 303 305 307 309 310
207 209 211 212 213 214 216 216 217 219 220 221 224 227 229 231 233 237 240 244 247 250 253 256 260 264 268 273 277 280 283 286 290 293 296 298 301 303 305 307 308 310 311
207 208 209 211 212 214 215 215 216 218 219 221 223 226 228 231 233 236 240 243 247 251 254 257 261 265 270 275 279 282 284 288 291 294 297 299 302 304 306 308 310 311 313
208 209 211 211 213 214 215 215 216 218 219 221 222 225 228 230 233 236 240 244 247 250 254 258 262 267 272 276 280 283 286 290 293 296 299 301 304 306 308 310 312 314 315
209 210 211 212 212 214 214 214 216 218 220 221 223 225 227 230 234 237 240 244 248 251 255 259 264 269 273 277 281 284 288 292 295 298 301 303 305 308 310 312 314 315 317
Height
5710 5717 5723 5730 5735 5741 5747 5753 5759 5764 5768 5773 5778 5782 5786 5790 5794 5797 5799 5802 5804 5806 5808 5809 5810 5810 5810 5810 5809 5808 5807 5805 5803 5802 5799 5797 5794 5791 5788 5785 5781 5778 5774
5699 5707 5714 5720 5727 5733 5739 5746 5752 5757 5762 5767 5772 5776 5780 5783 5787 5790 5793 5796 5798 5800 5802 5803 5803 5804 5804 5803 5803 5802 5800 5799 5797 5795 5792 5790 5788 5784 5781 5778 5775 5771 5767
5688 5697 5704 5711 5718 5725 5732 5738 5745 5750 5755 5760 5764 5768 5773 5777 5781 5784 5787 5789 5792 5794 5795 5796 5797 5797 5797 5797 5796 5795 5794 5792 5790 5788 5786 5783 5781 5778 5775 5771 5768 5764 5760
5678 5687 5695 5702 5710 5717 5724 5730 5736 5742 5747 5752 5757 5762 5767 5771 5775 5777 5780 5782 5785 5787 5788 5789 5790 5790 5790 5790 5789 5788 5786 5785 5783 5780 5778 5776 5774 5771 5768 5764 5761 5757 5753
5669 5677 5685 5694 5701 5708 5715 5721 5728 5734 5739 5744 5750 5755 5759 5764 5767 5770 5773 5775 5777 5780 5781 5782 5783 5783 5783 5782 5782 5781 5779 5778 5776 5773 5771 5768 5766 5763 5760 5757 5754 5750 5746
5658 5666 5675 5683 5691 5698 5705 5712 5718 5725 5731 5737 5742 5747 5752 5755 5759 5762 5765 5768 5770 5772 5774 5774 5775 5775 5775 5775 5774 5773 5772 5770 5768 5766 5763 5761 5758 5755 5752 5749 5746 5742 5738
5647 5655 5663 5672 5680 5688 5696 5703 5709 5716 5722 5728 5734 5739 5744 5747 5751 5755 5758 5760 5763 5765 5766 5766 5767 5768 5767 5767 5766 5765 5764 5762 5760 5758 5756 5753 5750 5747 5744 5741 5738 5734 5731
5636 5644 5653 5662 5670 5678 5686 5693 5701 5707 5714 5720 5726 5731 5735 5739 5743 5746 5749 5752 5755 5756 5757 5758 5759 5759 5759 5759 5758 5757 5756 5754 5752 5750 5748 5745 5743 5739 5736 5733 5729 5726 5723
5625 5635 5643 5651 5660 5669 5677 5684 5692 5698 5705 5711 5717 5722 5727 5731 5735 5738 5741 5744 5746 5748 5749 5750 5751 5751 5751 5751 5750 5749 5748 5746 5744 5742 5740 5738 5735 5731 5728 5724 5721 5718 5714
5615 5624 5632 5640 5649 5659 5667 5674 5681 5689 5695 5702 5708 5713 5718 5723 5726 5729 5732 5735 5738 5739 5740 5741 5742 5743 5743 5743 5742 5741 5740 5738 5736 5734 5732 5730 5727 5723 5720 5716 5712 5709 5705
5604 5613 5622 5630 5639 5648 5656 5664 5672 5679 5685 5692 5698 5704 5709 5713 5717 5720 5724 5727 5729 5730 5732 5733 5734 5734 5735 5734 5734 5733 5731 5730 5728 5726 5724 5722 5718 5715 5712 5708 5704 5700 5696
5594 5602 5611 5620 5628 5637 5646 5654 5662 5669 5677 5683 5689 5694 5699 5704 5708 5711 5715 5717 5720 5722 5723 5724 5725 5726 5726 5726 5725 5725 5723 5722 5720 5718 5716 5713 5710 5707 5704 5700 5696 5692 5688
5584 5592 5600 5610 5619 5628 5636 5645 5653 5660 5667 5673 5679 5684 5689 5694 5699 5702 5706 5709 5711 5713 5715 5716 5717 5717 5717 5717 5717 5716 5715 5714 5712 5710 5707 5705 5702 5699 5695 5692 5688 5683 5679
5574 5582 5591 5601 5609 5618 5626 5635 5643 5650 5657 5663 5669 5674 5680 5685 5689 5693 5697 5699 5702 5704 5706 5707 5708 5709 5709 5709 5709 5708 5707 5706 5704 5702 5699 5696 5693 5690 5687 5683 5679 5675 5670
5566 5574 5583 5591 5600 5608 5617 5625 5633 5640 5646 5653 5659 5665 5671 5675 5679 5684 5687 5690 5693 5695 5697 5698 5699 5700 5700 5700 5700 5700 5698 5697 5695 5693 5691 5688 5685 5682 5678 5674 5670 5665 5660
5558 5566 5574 5582 5591 5599 5607 5615 5623 5630 5637 5643 5650 5655 5661 5666 5670 5674 5678 5681 5683 5686 5688 5689 5691 5692 5692 5692 5692 5691 5690 5688 5687 5685 5682 5680 5676 5673 5670 5665 5661 5656 5651
5550 5558 5566 5574 5582 5590 5598 5606 5613 5620 5627 5634 5640 5646 5651 5656 5661 5665 5669 5672 5675 5677 5679 5681 5682 5683 5684 5684 5683 5682 5681 5680 5679 5677 5674 5671 5668 5665 5661 5656 5652 5647 5641
5544 5551 5559 5567 5574 5582 5589 5597 5604 5611 5618 5625 5631 5637 5642 5647 5652 5656 5660 5663 5666 5669 5671 5673 5674 5675 5675 5675 5675 5674 5673 5672 5670 5668 5666 5663 5660 5656 5652 5647 5642 5637 5631
5536 5544 5552 5560 5567 5574 5581 5589 5596 5603 5610 5616 5623 5629 5634 5639 5643 5647 5651 5655 5658 5660 5663 5664 5666 5667 5667 5667 5667 5666 5665 5664 5662 5660 5658 5654 5651 5647 5643 5638 5633 5627 5621
5529 5537 5545 5553 5560 5567 5574 5581 5588 5595 5602 5609 5615 5621 5626 5631 5635 5639 5643 5646 5649 5652 5654 5656 5657 5658 5659 5659 5659 5658 5657 5656 5654 5652 5649 5646 5642 5638 5633 5629 5623 5617 5610
5523 5531 5538 5546 5554 5561 5568 5575 5582 5588 5595 5601 5607 5613 5618 5623 5627 5631 5635 5639 5642 5644 5646 5648 5649 5650 5651 5651 5651 5650 5649 5648 5646 5643 5640 5637 5633 5629 5624 5619 5613 5607 5600
5517 5525 5532 5540 5547 5555 5562 5569 5576 5582 5588 5594 5600 5605 5610 5615 5620 5624 5627 5631 5634 5636 5638 5640 5641 5642 5643 5643 5643 5642 5641 5639 5637 5634 5631 5628 5624 5619 5615 5609 5603 5596 5589
5511 5519 5527 5534 5542 5549 5556 5563 5569 5576 5582 5588 5593 5598 5603 5608 5612 5616 5620 5623 5626 5629 5631 5633 5634 5635 5635 5635 5635 5634 5633 5631 5628 5626 5622 5619 5614 5610 5605 5599 5592 5585 5578
5505 5513 5521 5528 5536 5543 5550 5557 5563 5570 5576 5581 5587 5592 5597 5601 5606 5610 5613 5617 5619 5622 5623 5625 5626 5627 5627 5627 5627 5626 5624 5622 5620 5617 5613 5609 5605 5600 5595 5589 5582 5575 5567
5499 5507 5515 5523 5530 5537 5544 5551 5558 5564 5570 5575 5581 5586 5591 5595 5599 5603 5607 5610 5612 5614 5616 5618 5619 5620 5620 5620 5619 5617 5616 5613 5611 5608 5604 5600 5596 5591 5585 5579 5572 5564 5555
5493 5501 5509 5517 5524 5531 5539 5546 5552 5558 5564 5570 5575 5580 5585 5589 5593 5597 5600 5602 5605 5607 5609 5611 5612 5612 5612 5611 5610 5609 5607 5605 5602 5599 5596 5591 5586 5581 5575 5569 5561 5553 5544